Skip Page Navigation
NASA JPL Caltech
NASA Logo - Jet Propulsion Laboratory + View the NASA Portal
+ Near-Earth Object (NEO) Program
Search JPL
JPL Home Earth Solar System Stars & Galaxies Technology
JPL Solar System Dynamics
BODIES ORBITS EPHEMERIDES TOOLS PHYSICAL DATA DISCOVERY FAQ SITE MAP
JPL Small-Body Database Browser
Search: [ help ]  
18751 Yualexandrov (1999 GO9)
Classification: Main-belt Asteroid          SPK-ID: 2018751
Ephemeris | Orbit Diagram | Orbital Elements | Physical Parameters | Discovery Circumstances ]

[ show orbit diagram ]
Orbital Elements at Epoch 2456400.5 (2013-Apr-18.0) TDB
Reference: MPO229182 (heliocentric ecliptic J2000)
 Element Value Uncertainty (1-sigma)   Units 
e 0.2511828 n/a  
a 2.2277981 n/a AU
q 1.6682135 n/a AU
i 4.63974 n/a deg
node 343.76453 n/a deg
peri 328.36982 n/a deg
M 6.57793 n/a deg
tp 2456378.3078744
(2013-Mar-26.80787440)
n/a JED
period 1214.5409293
3.33
n/a
n/a
d
yr
n 0.29640829 n/a deg/d
Q 2.7873827 n/a AU
  Orbit Determination Parameters
   # obs. used (total)      769  
   first obs. used      1993-??-??  
   last obs. used      2012-04-24  
   # oppositions      13  
   planetary ephem.      DE403  
   condition code      0  
   fit RMS      0.53  
   data source      MPC:mpn  
   producer      MPCLINUX  

Additional Information
 T_jup = 3.598 

Ephemeris | Orbit Diagram | Orbital Elements | Physical Parameters | Discovery Circumstances ]

Physical Parameter Table
Parameter Symbol Value Units Sigma Reference Notes
absolute magnitude H 14.7 mag n/a PDS3 (MPO 5284)  

18751 Yualexandrov           Discovered 1999 Apr. 15 by the Lowell Observatory Near-Earth Object Search at the Anderson Mesa Station.
Yurij Vladimirovich Alexandrov (b. 1934) is a professor at the V. N. Karazin Kharkiv National University. A well-regarded teacher, Alexandrov is the author of Physics of Planets, Celestial Mechanics and other textbooks for university students. The name was suggested by D. F. Lupishko and Yu. G. Shkuratov.
NOTE: some special characters may not display properly (any characters within {} are an attempt to place the proper accent above a character)
Reference: 20080321/MPCPages.arcLast Updated: 2008-03-26

Alternate Designations
 1999 GO9 = 1993 TX4 = 1995 BG6 
Ephemeris | Orbit Diagram | Orbital Elements | Physical Parameters | Discovery Circumstances ]
ABOUT SSD CREDITS/AWARDS PRIVACY/COPYRIGHT GLOSSARY LINKS
FirstGov 2013-May-23 23:25 UT
(server date/time)  
NASA Home Page
Site Manager:   Donald K. Yeomans
Webmaster  Alan B. Chamberlin